COSMOS 2251 DEB, 34446

Orbit data source: Space-Track

COSMOS 2251 DEB, 34446 is space debris in LEO originally from a launch on Wed, 16 Jun 1993 UTC launched from the Plesetsk Missile And Space Complex (PKMTR). The debris from Iridium 33, an American commercial communications satellite, has been tracked extensively since its accidental collision with the defunct Russian satellite Cosmos 2251 in 2009. This event, occurring at high speed in low Earth orbit (LEO), generated thousands of pieces of space debris, significantly increasing the risk of further collisions. The Iridium 33 debris cloud has impacted space traffic management and orbital debris mitigation strategies, making it a subject of ongoing study in space situational awareness.

Loading next visibility...
Identifier
34446, 1993-036SP
Orbit
LEO
Country
Flag of CISCIS
Related business
Manufacturer
Unknown
Mission
Spacecraft
Bus & Motor
Unknown
Mass
Unknown
Launch date (UTC)
1993-06-16 (32 years ago)
Launch vehicle
Unknown
Launch site
Plesetsk Missile And Space Complex (PKMTR)
Object type
Payload
Rocket body
Debris
Shape & HBR
Unknown shape, 0.1 m
Radar Cross Section
Small (<0.1 m²)

Expand to show TLE details & history
Last TLE update: 19 hours ago

TLE from 19 hours ago
0 COSMOS 2251 DEB
1 34446U 93036SP  25302.99387137  .00000561  00000-0  15209-3 0  9993
2 34446  74.0393 139.3140 0052014 286.3542  73.1903 14.49269634880605
Epoch: 2025-10-29T23:51Z
TLE epoch observation values (Epoch: 2025-10-29T23:51:10.486Z)
Latitude
0.00005°
Longitude
102.96129°
Altitude
720.148 km
Speed
7.501 km/s
True Right ascension
09h 17m 15s
True Declination
0° 00' 00"
Sunlit
Object was in daylight at epoch
Visualization orbit readout
Latitude
Unknown
Longitude
Unknown
Altitude
Unknown
Speed
Unknown
Apparent Right ascension
Unknown
Apparent Declination
Unknown
Sunlit
N/A
Visualization observer readout
Local Sidereal Time
14:51:34
Azimuth
Unknown
Elevation
Unknown
Doppler factor
Unknown
Orbital elements
Apogee altitude
762.594 km
Perigee altitude
688.694 km
Semi-major axis
7,103.781 km
Eccentricity
0.0052
Inclination
74.0393°
RAAN
139.314°
Arg. of periapsis
286.3542°
True anomaly
73.76193°
Mean anomaly
73.1903°
Eccentric anomaly
73.47601°
Mean motion
3.62501 °/min
Orbital period
99.31 mins
BSTAR
0.00015209

Documentation

Showing up to 5 results
|